Погода в Старой Чертории

Украина / Житомирская область     50°00′41″N   27°41′51″E
темп.,
°C
ветер,
м/с
пор.,
м/с
влажн.,
%
обл.,
%
осадки,
мм/ч
давл.,
гПа
погр.,
м
12 мая, ср
ср1200:00+11в38860 0.0 1017121
03:00+10в49961 0.0 1016191
06:00+9в5109862 0.0 1016344
09:00+11в79730 0.0 1016786
12:00+13в78588 0.0 10161349
15:00+13в786099 0.0 10151596
18:00+11в4774100 0.0 1015702
21:00+10в2677100 0.1 1013194
13 мая, чт
чт1300:00+7в358874 0.0 101391
03:00+6вюв3495100 0.0 101182
06:00+6вюв369597 0.0 1010146
09:00+11юв587037 0.0 1009736
12:00+10ююв61077100 0.0 1009793
15:00+11юв71381100 0.1 1008921
18:00+14ююв7127959 0.0 10061099
21:00+11ююв61390100 0.3 1007613
14 мая, пт
пт1400:00+11ююв6129396 0.1 1006728
03:00+10ююв51094100 0.2 1006435
06:00+9ююв3795100 1.4 1006242
09:00+11ю349086 1.4 1006220
12:00+18ю346395 0.3 10061229
15:00+16ююз5780100 3.6 1007678
18:00+12ю3892100 2.5 1008242
21:00+12зсз3693100 2.7 1009147
15 мая, сб
сб1500:00+11з3594100 0.0 1010175
03:00+9зюз369594 0.0 1011136
06:00+8з399440 0.0 1012208
09:00+13зюз12745 0.0 1012339
12:00+17юз566026 0.1 10121507
15:00+19зюз465681 0.9 10111729
18:00+18з136352 0.3 1011740
21:00+15в2270100 0.3 101217
16 мая, вс
вс1600:00+14вюв3470100 0.0 101278
03:00+13вюв367157 0.0 1012126
06:00+10вюв379098 0.0 1012138
09:00+15в5880100 0.1 1012383
12:00+19вюв5768100 1.5 1011959
15:00+21вюв685678 1.9 10102069
18:00+19юв6973100 0.6 1010850
21:00+15вюв41090100 1.1 1010245